Location: *
(43.9905°S, 176.4941°W)
Time: 19:36:06
(UTC+00:00)

Cosmos 1356 - Pass Details

Date: 08 December 2019
Orbit: 445 x 449 km, 81.1° (Epoch: 27 January)

Event Time Altitude Azimuth Distance (km) Brightness Sun altitude
Exits shadow 10:59:02 46° 248° (WSW) 625 4.2 -22.7°
Drops below altitude 10° 11:02:18 10° 181° (S) 1,611 7.3 -22.8°
Sets 11:04:28 0° 175° (S) 2,493 8.5 -22.9°
